Powrót do katalogu

STARLINK-34763

AktywnyŁącznośćVLEO
NORAD 65206·PAYLOAD·🇺🇸 United States

Wystrzelony Aug 14, 2025 z Cape Canaveral Space Force Station

Loading…

Następne Przeloty (najbliższe 24 godziny)

TLE

ŚwieżeSource: CelesTrak SupGP

Epoka: Sep 15, 2026, 02:48 UTC

1 65206C 25176J   26258.11715278  .00069621  00000+0  20561-2 0  2582
2 65206  53.1588 348.9222 0001083  86.0743  74.8900 15.34370014    18

Śledź STARLINK-34763 w czasie rzeczywistym z AllMySat

Download on the App Store